Glendale Luke AFB, AZ

5:43 PM MST on December 17, 2017 (GMT -0700)
Luke Air Force Base

Weather History for KLUF - August, 2013

Change the Weather History Date:

Saturday, August 31, 2013

  Actual Average Record
Temperature  
Mean Temperature 90 °F -  
Max Temperature 100 °F 106 °F 114 °F (1950)
Min Temperature 80 °F 73 °F 57 °F (1953)
Cooling Degree Days 25    
Growing Degree Days 40 (Base 50)    
Moisture  
Dew Point 70 °F    
Average Humidity 55    
Maximum Humidity 76    
Minimum Humidity 29    
Precipitation  
Precipitation 0.00 in - - ()
Sea Level Pressure  
Sea Level Pressure 29.86 in    
Wind  
Wind Speed 5 mph (North)    
Max Wind Speed 10 mph    
Max Gust Speed -    
Visibility 10 miles    
Events Thunderstorm    
Averages and records for this station are not official NWS values.
T = Trace of Precipitation, MM = Missing Value Source: NWS Daily Summary

Daily Weather History Graph

Daily Weather History Graph

Search for Another Location

Airport or City:

Trip Planner

Search our weather history database for the weather conditions in past years. The results will help you decide how hot, cold, wet, or windy it might be!

Date:

Astronomy

Aug. 31, 2013 Rise Set
Actual Time 6:03 AM MST 6:55 PM MST
Civil Twilight 5:37 AM MST 7:21 PM MST
Nautical Twilight 5:07 AM MST 7:51 PM MST
Astronomical Twilight 4:36 AM MST 8:21 PM MST
Moon 1:43 AM MST (8/31) 3:49 PM MST (8/31)
Length of Visible Light 13h 43m
Length of Day
12h 52m
Waning Crescent, 20% of the Moon is Illuminated
Aug 31
Waning Crescent
Sep 5
New
Sep 12
First Quarter
Sep 19
Full
Sep 26
Last Quarter

Hourly Weather History & Observations

Time (MST) Temp. Heat Index Dew Point Humidity Pressure Visibility Wind Dir Wind Speed Gust Speed Precip Events Conditions
12:58 AM 81.5 °F 86.3 °F 72.3 °F 74% 29.91 in 10.0 mi North 4.6 mph - N/A   Clear
1:58 AM 81.3 °F 85.8 °F 71.8 °F 73% 29.90 in 10.0 mi NNW 4.6 mph - N/A   Mostly Cloudy
2:58 AM 81.1 °F 85.4 °F 71.6 °F 73% 29.88 in 10.0 mi North 4.6 mph - N/A   Mostly Cloudy
3:58 AM 80.4 °F 84.5 °F 72.3 °F 76% 29.88 in 10.0 mi North 2.3 mph - N/A   Partly Cloudy
4:58 AM 80.6 °F 84.4 °F 71.4 °F 73% 29.88 in 10.0 mi Calm Calm - N/A   Mostly Cloudy
5:58 AM 81.0 °F 85.4 °F 72.5 °F 75% 29.91 in 10.0 mi SW 3.5 mph - N/A   Mostly Cloudy
6:58 AM 81.7 °F 86.3 °F 72.0 °F 72% 29.91 in 10.0 mi NE 2.3 mph - N/A   Partly Cloudy
7:58 AM 82.6 °F 88.1 °F 72.9 °F 72% 29.94 in 10.0 mi West 2.3 mph - N/A   Partly Cloudy
8:58 AM 84.2 °F 90.6 °F 72.9 °F 69% 29.94 in 10.0 mi NE 4.6 mph - N/A   Clear
9:58 AM 86.2 °F 91.8 °F 71.4 °F 61% 29.94 in 10.0 mi East 3.5 mph - N/A   Partly Cloudy
10:58 AM 90.1 °F 95.8 °F 70.5 °F 52% 29.92 in 8.0 mi ESE 3.5 mph - N/A   Clear
11:58 AM 92.3 °F 98.1 °F 70.0 °F 48% 29.89 in 10.0 mi West 4.6 mph - N/A   Clear
12:58 PM 93.4 °F 99.7 °F 70.5 °F 47% 29.86 in 10.0 mi SW 5.8 mph - N/A   Mostly Cloudy
1:58 PM 96.4 °F 102.4 °F 68.9 °F 41% 29.84 in 10.0 mi West 6.9 mph - N/A   Clear
2:58 PM 98.2 °F 102.8 °F 67.5 °F 36% 29.81 in 10.0 mi Variable 5.8 mph - N/A   Clear
3:58 PM 99.3 °F 101.7 °F 64.0 °F 31% 29.79 in 10.0 mi NNW 4.6 mph - N/A   Clear
4:58 PM 100.0 °F 101.8 °F 62.1 °F 29% 29.77 in 10.0 mi WSW 4.6 mph - N/A   Clear
5:58 PM 97.9 °F 102.1 °F 66.9 °F 36% 29.76 in 10.0 mi NNE 10.4 mph - N/A   Clear
6:58 PM 95.2 °F 98.8 °F 66.4 °F 39% 29.77 in 10.0 mi North 8.1 mph - N/A   Clear
7:58 PM 91.4 °F 94.9 °F 67.6 °F 45% 29.80 in 10.0 mi NE 4.6 mph - N/A   Clear
8:58 PM 89.6 °F 93.9 °F 68.7 °F 50% 29.83 in 10.0 mi North 5.8 mph - N/A   Mostly Cloudy
9:58 PM 89.6 °F 93.4 °F 68.0 °F 49% 29.84 in 10.0 mi WNW 8.1 mph - N/A   Mostly Cloudy
10:58 PM 88.5 °F 92.3 °F 68.4 °F 51% 29.83 in 10.0 mi NNE 8.1 mph - N/A Thunderstorm Partly Cloudy
11:58 PM 86.7 °F 91.4 °F 69.6 °F 57% 29.82 in 10.0 mi NNE 5.8 mph - N/A   Clear